Exeter, United Kingdom

1:26 AM BST on April 24, 2017 (GMT +0100)
Exeter

Weather History for EGTE - November, 2013

Change the Weather History Date:

Wednesday, November 13, 2013

  Actual Average Record
Temperature  
Mean Temperature 40 °F -  
Max Temperature 52 °F 49 °F 59 °F (2006)
Min Temperature 28 °F 38 °F 28 °F (2013)
Degree Days  
Heating Degree Days 25    
Moisture  
Dew Point 39 °F    
Average Humidity 86    
Maximum Humidity 100    
Minimum Humidity 59    
Precipitation  
Precipitation 0.01 in - - ()
Sea Level Pressure  
Sea Level Pressure 30.46 in    
Wind  
Wind Speed 5 mph ()    
Max Wind Speed 15 mph    
Max Gust Speed -    
Visibility 6.2 miles    
Events Fog , Rain    
Averages and records for this station are not official NWS values.
T = Trace of Precipitation, MM = Missing Value Source: Averaged Metar Reports

Daily Weather History Graph

Daily Weather History Graph

Search for Another Location

Airport or City:

Trip Planner

Search our weather history database for the weather conditions in past years. The results will help you decide how hot, cold, wet, or windy it might be!

Date:

Astronomy

Nov. 13, 2013 Rise Set
Actual Time 7:25 AM GMT 4:29 PM GMT
Civil Twilight 6:49 AM GMT 5:05 PM GMT
Nautical Twilight 6:09 AM GMT 5:45 PM GMT
Astronomical Twilight 5:31 AM GMT 6:23 PM GMT
Moon 2:31 PM GMT (11/13) 2:37 AM GMT (11/13)
Length of Visible Light 10h 15m
Length of Day
9h 03m
Waxing Gibbous, 83% of the Moon is Illuminated
Nov 13
Waxing Gibbous
Nov 17
Full
Nov 25
Last Quarter
Dec 3
New
Dec 9
First Quarter

Hourly Weather History & Observations

Time (GMT) Temp. Windchill Dew Point Humidity Pressure Visibility Wind Dir Wind Speed Gust Speed Precip Events Conditions
12:00 AM 34 °F - 34 °F 98%  in - Calm Calm - -  
12:20 AM 35.6 °F 32.8 °F 35.6 °F 100% 30.57 in 6.2 mi East 3.5 mph - N/A   Partly Cloudy
12:50 AM 35.6 °F - 33.8 °F 93% 30.57 in 6.2 mi Variable 2.3 mph - N/A   Partly Cloudy
1:20 AM 33.8 °F - 33.8 °F 100% 30.57 in 6.2 mi NNE 2.3 mph - N/A   Partly Cloudy
1:50 AM 32.0 °F 27.5 °F 32.0 °F 100% 30.57 in 6.2 mi ENE 4.6 mph - N/A   Partly Cloudy
3:00 AM 33 °F - 32 °F 95%  in - Calm Calm - -  
6:00 AM 30 °F - 30 °F 99%  in - Calm Calm - -  
6:20 AM 30.2 °F - 30.2 °F 100% 30.57 in 6.2 mi Variable 2.3 mph - N/A Fog Shallow Fog
6:50 AM 30.2 °F - 30.2 °F 100% 30.57 in 6.2 mi NNW 1.2 mph - N/A Fog Shallow Fog
7:20 AM 28.4 °F 24.6 °F 28.4 °F 100% 30.57 in 6.2 mi East 3.5 mph - N/A Fog Shallow Fog
8:20 AM 30.2 °F 26.7 °F 30.2 °F 100% 30.57 in - East 3.5 mph - N/A   Clear
8:50 AM 32.0 °F - 32.0 °F 100% 30.57 in - Calm Calm - N/A   Clear
9:00 AM 34 °F - 33 °F 97%  in - Calm Calm - -  
9:20 AM 33.8 °F - 33.8 °F 100% 30.57 in - Variable 2.3 mph - N/A   Clear
9:50 AM 35.6 °F - 35.6 °F 100% 30.57 in - Variable 1.2 mph - N/A   Clear
10:20 AM 37.4 °F - 37.4 °F 100% 30.57 in - Variable 2.3 mph - N/A   Clear
10:50 AM 39.2 °F - 39.2 °F 100% 30.57 in - Variable 1.2 mph - N/A   Clear
11:20 AM 41.0 °F - 41.0 °F 100% 30.57 in 6.2 mi Variable 1.2 mph - N/A   Partly Cloudy
11:50 AM 42.8 °F - 42.8 °F 100% 30.54 in 6.2 mi Variable 1.2 mph - N/A   Partly Cloudy
12:00 PM 47 °F - 42 °F 77%  in - Calm Calm - -  
12:20 PM 48.2 °F - 44.6 °F 87% 30.51 in 6.2 mi Variable 1.2 mph - N/A   Partly Cloudy
12:50 PM 50.0 °F - 44.6 °F 82% 30.51 in 6.2 mi Variable 2.3 mph - N/A   Partly Cloudy
1:20 PM 51.8 °F - 42.8 °F 71% 30.51 in 6.2 mi SSW 6.9 mph - N/A   Partly Cloudy
1:50 PM 51.8 °F - 41.0 °F 67% 30.48 in 6.2 mi SSW 11.5 mph - N/A   Scattered Clouds
2:20 PM 50.0 °F - 41.0 °F 71% 30.48 in 6.2 mi SW 8.1 mph - N/A   Scattered Clouds
2:50 PM 50.0 °F - 41.0 °F 71% 30.45 in 6.2 mi WSW 11.5 mph - N/A   Mostly Cloudy
3:00 PM 50 °F - 40 °F 59%  in - Calm Calm - -  
3:20 PM 50.0 °F - 41.0 °F 71% 30.45 in 6.2 mi SW 9.2 mph - N/A   Mostly Cloudy
3:50 PM 50.0 °F - 41.0 °F 71% 30.45 in 6.2 mi WSW 6.9 mph - N/A   Mostly Cloudy
4:20 PM 50.0 °F - 41.0 °F 71% 30.42 in 6.2 mi SSW 5.8 mph - N/A   Mostly Cloudy
4:50 PM 48.2 °F - 42.8 °F 82% 30.42 in 6.2 mi SW 6.9 mph - N/A   Mostly Cloudy
5:20 PM 48.2 °F - 41.0 °F 76% 30.42 in 6.2 mi SSW 6.9 mph - N/A   Scattered Clouds
5:50 PM 48.2 °F - 42.8 °F 82% 30.39 in 6.2 mi SW 5.8 mph - N/A   Scattered Clouds
6:00 PM 49 °F - 42 °F 69%  in - Calm Calm - -  
6:20 PM 48.2 °F - 41.0 °F 76% 30.39 in 6.2 mi SSW 8.1 mph - N/A   Scattered Clouds
6:50 PM 48.2 °F - 39.2 °F 71% 30.36 in 6.2 mi SSW 9.2 mph - N/A   Scattered Clouds
7:20 PM 48.2 °F - 39.2 °F 71% 30.36 in 6.2 mi SW 9.2 mph - N/A   Scattered Clouds
7:50 PM 48.2 °F - 41.0 °F 76% 30.36 in 6.2 mi SW 8.1 mph - N/A Rain Light Rain
8:20 PM 48.2 °F - 41.0 °F 76% 30.33 in 6.2 mi SSW 10.4 mph - N/A   Mostly Cloudy
8:50 PM 48.2 °F - 41.0 °F 76% 30.33 in 6.2 mi SW 10.4 mph - N/A   Mostly Cloudy
9:00 PM 50 °F - 42 °F 65%  in - Calm Calm - -  
9:20 PM 48.2 °F - 42.8 °F 82% 30.30 in 6.2 mi SW 13.8 mph - N/A   Mostly Cloudy
9:50 PM 48.2 °F - 42.8 °F 82% 30.30 in 6.2 mi SW 15.0 mph - N/A   Mostly Cloudy
10:20 PM 50.0 °F - 44.6 °F 82% 30.30 in 6.2 mi SW 15.0 mph - N/A   Scattered Clouds
10:50 PM 48.2 °F - 44.6 °F 87% 30.27 in 6.2 mi SW 13.8 mph - N/A   Mostly Cloudy
11:20 PM 48.2 °F - 46.4 °F 93% 30.27 in 5.6 mi SW 11.5 mph - N/A Rain Rain
11:50 PM 48.2 °F - 46.4 °F 93% 30.24 in 6.2 mi SW 6.9 mph - N/A   Partly Cloudy